TimeEDT,TemperatureF,Dew PointF,Humidity,Sea Level PressureIn,VisibilityMPH,Wind Direction,Wind SpeedMPH,Gust SpeedMPH,PrecipitationIn,Events,Conditions,WindDirDegrees,DateUTC
12:56 AM,44.1,36.0,73,29.61,10.0,SW,9.2,-,N/A,,Mostly Cloudy,220,2012-11-01 04:56:00
1:56 AM,44.6,35.6,71,29.60,10.0,WSW,10.4,-,N/A,,Overcast,240,2012-11-01 05:56:00
2:56 AM,45.0,35.1,68,29.60,10.0,West,9.2,-,N/A,,Overcast,270,2012-11-01 06:56:00
3:56 AM,45.0,35.1,68,29.60,10.0,West,11.5,-,N/A,,Overcast,280,2012-11-01 07:56:00
4:56 AM,44.6,35.6,71,29.60,10.0,West,6.9,-,N/A,,Overcast,260,2012-11-01 08:56:00
5:56 AM,45.0,36.0,71,29.62,10.0,West,10.4,-,0.00,Rain,Light Rain,260,2012-11-01 09:56:00
6:56 AM,44.1,36.0,73,29.62,10.0,West,8.1,-,0.00,,Overcast,260,2012-11-01 10:56:00
7:56 AM,44.1,36.0,73,29.62,10.0,WSW,5.8,-,0.00,,Overcast,250,2012-11-01 11:56:00
8:56 AM,45.0,36.0,71,29.64,10.0,West,8.1,-,N/A,,Overcast,260,2012-11-01 12:56:00
9:56 AM,46.0,37.0,71,29.65,10.0,West,8.1,-,0.00,,Overcast,260,2012-11-01 13:56:00
10:56 AM,46.4,37.4,71,29.65,10.0,West,15.0,19.6,N/A,,Mostly Cloudy,280,2012-11-01 14:56:00
11:56 AM,46.9,37.9,71,29.66,10.0,WSW,12.7,-,0.00,Rain,Light Rain,250,2012-11-01 15:56:00
12:56 PM,48.0,37.9,68,29.65,10.0,West,10.4,-,0.00,,Overcast,260,2012-11-01 16:56:00
1:56 PM,48.9,37.0,64,29.63,10.0,West,13.8,-,N/A,,Overcast,260,2012-11-01 17:56:00
2:56 PM,48.9,37.9,66,29.62,10.0,WSW,12.7,-,N/A,,Overcast,250,2012-11-01 18:56:00
3:56 PM,48.9,37.0,64,29.63,10.0,West,9.2,-,N/A,,Overcast,260,2012-11-01 19:56:00
4:56 PM,48.2,35.6,62,29.63,10.0,WNW,10.4,-,N/A,,Overcast,290,2012-11-01 20:56:00
5:56 PM,48.0,37.0,66,29.65,10.0,West,8.1,-,0.00,Rain,Light Rain,280,2012-11-01 21:56:00
6:56 PM,48.0,37.0,66,29.67,10.0,West,9.2,-,0.00,,Overcast,270,2012-11-01 22:56:00
7:56 PM,48.0,37.0,66,29.67,10.0,West,10.4,-,N/A,,Overcast,270,2012-11-01 23:56:00
8:56 PM,46.9,36.0,66,29.68,10.0,West,11.5,-,N/A,,Overcast,280,2012-11-02 00:56:00
9:56 PM,46.9,37.0,68,29.69,10.0,West,9.2,-,N/A,,Overcast,280,2012-11-02 01:56:00
10:56 PM,46.9,37.0,68,29.69,10.0,West,8.1,-,0.00,Rain,Light Rain,280,2012-11-02 02:56:00
11:56 PM,46.9,37.0,68,29.70,10.0,West,9.2,-,0.00,,Overcast,280,2012-11-02 03:56:00